Location: Bazian
(43.6694°N, 0.3223°E)
Time: 01:26:46
(UTC+00:00)

Daily predictions for brighter satellites

Satellite Brightness Start Highest point End
(mag) Time Altitude Azimuth Time Altitude Azimuth Time Altitude Azimuth
Cosmos 2237 Rocket 4.1 03:43:06 26° ENE 03:43:06 26° ENE 03:46:04 10° NE
BREEZE-M DEB (TANK) 4.4 03:55:50 69° N 03:55:50 69° N 04:00:44 10° E
Cosmos 2333 Rocket 4.5 04:04:35 14° NNE 04:04:35 14° NNE 04:05:26 10° NNE
Lacrosse 4 Rocket 4.2 04:04:26 17° ENE 04:04:26 17° ENE 04:05:57 10° NE
Gbstr 26 Del rocket 4.3 04:13:50 77° SE 04:13:50 77° SE 04:21:45 10° ENE
Cosmos 1464 Rocket 4.4 04:13:47 57° ESE 04:14:11 59° E 04:20:14 10° NNE
FALCON 9 R/B 4.1 04:24:54 15° S 04:24:54 15° S 04:26:00 10° SSE
Atlas Centaur 2 3.9 04:26:50 28° S 04:26:57 28° S 04:33:25 10° SE
ATLAS CENTAUR R/B 3.8 04:31:45 16° NE 04:31:45 16° NE 04:32:40 10° NE
METEOR-M 4.3 04:29:18 10° NNE 04:34:34 69° E 04:34:34 69° E
Lacrosse 5 rocket 3.9 04:40:11 12° SE 04:40:11 12° SE 04:40:33 10° SE
Cosmos 372 Rocket 4.2 04:40:33 69° ENE 04:40:34 69° ENE 04:45:47 10° SSE
USA 215 4.0 04:37:21 10° NE 04:43:11 36° NNW 04:43:15 36° NNW
USA 307 4.1 04:44:43 40° ENE 04:44:43 40° ENE 04:47:33 10° ENE
NOSS 0 Rocket 4.2 04:45:41 52° NNW 04:45:41 52° NNW 04:50:40 10° NNE
ADEOS 3.7 04:39:49 10° NNE 04:45:02 70° ESE 04:47:41 29° S
Nadezhda 4 Rocket 4.0 04:43:20 10° N 04:49:28 76° E 04:55:35 10° SSE
USA 305 3.8 04:50:49 46° ENE 04:50:49 46° ENE 04:53:52 10° NE
USA 308 3.6 04:53:18 52° ENE 04:53:18 52° ENE 04:56:37 10° NE
Cosmos 1400 Rocket 3.5 04:53:19 54° E 04:53:19 54° E 04:57:15 10° NNE
SL-4 R/B 3.2 04:55:30 34° NE 04:55:30 34° NE 04:57:55 10° NE
Cosmos 2034 Rocket 4.0 04:49:20 10° S 04:55:43 87° E 05:02:06 10° N
Cosmos 1943 Rocket 3.8 04:51:10 11° N 04:56:00 32° NE 05:01:02 10° ESE
Meteor 1-16 Rocket 4.4 04:50:46 10° S 04:56:40 77° E 05:02:37 10° NNE
Cosmos 1570 Rocket 4.0 04:57:35 66° NNW 04:57:35 66° NNW 05:02:16 10° NNE
Cosmos 540 Rocket 4.4 05:01:40 34° N 05:01:40 34° N 05:04:49 10° NNE
CZ-4B R/B 3.9 04:56:41 10° SSE 04:57:25 16° SSE 04:57:25 16° SSE
USA 306 3.2 05:02:36 60° NE 05:02:36 60° NE 05:06:08 10° NE
SJ-12 4.1 04:59:05 10° NNE 05:03:14 72° ESE 05:04:12 50° SSE
NOSS 3-2 (A) 3.5 05:00:28 29° SSW 05:03:28 71° ESE 05:09:49 10° NE
Cosmos 1814 Rocket 3.8 05:03:50 71° NW 05:03:50 71° NW 05:08:49 10° NNE
Cosmos 2298 Rocket 4.5 05:00:29 21° N 05:04:01 61° ENE 05:09:17 10° SSE
Cosmos 2369 Rocket 4.2 05:01:45 10° N 05:06:13 24° NE 05:10:41 10° ESE
COSMO-SKYMED 1 2.5 05:06:38 10° SSE 05:10:58 84° ENE 05:12:33 39° N
CZ-4B R/B 3.4 05:08:41 10° NNE 05:12:17 54° E 05:16:02 10° S
CZ-4B R/B 4.2 05:09:44 10° N 05:13:34 58° NNW 05:13:34 58° NNW
USA 267 4.0 05:10:39 10° S 05:16:18 31° SW 05:16:23 31° SW
Cosmos 2278 Rocket 3.4 05:18:36 25° SW 05:18:36 25° SW 05:21:31 10° SSW
SL-16 R/B 2.3 05:11:06 10° SSW 05:16:44 74° ESE 05:22:24 10° NNE
NOSS 3-2 (C) 4.0 05:11:49 10° SSW 05:17:11 53° ESE 05:23:17 10° NE
CZ-2C R/B 2.9 05:19:17 23° SSW 05:19:32 23° S 05:22:53 10° SE
Cosmos 972 Rocket 4.4 05:14:54 10° SSW 05:21:15 80° ESE 05:26:55 10° NNE
Cosmos 2219 Rocket 4.1 05:23:36 13° NNW 05:23:36 13° NNW 05:24:51 10° N
ERS-2 2.2 05:20:04 10° SSE 05:23:42 76° ENE 05:25:10 34° N
CENTAUR R/B 2.8 05:18:40 10° SSW 05:24:21 65° ESE 05:31:08 10° NE
Cosmos 2237 Rocket 2.7 05:24:59 37° NW 05:24:59 37° NW 05:30:15 10° NNE
Cosmos 2208 Rocket 4.1 05:23:25 40° WSW 05:25:00 53° WNW 05:30:18 10° NNE
ATLAS 5 CENTAUR R/B 2.6 05:25:47 34° SSW 05:25:47 34° SSW 05:29:54 10° SSE
Cosmos 2026 Rocket 4.3 05:18:51 10° N 05:25:13 69° E 05:31:34 10° SSE
H-2A R/B 3.0 05:25:34 10° NNE 05:29:17 67° E 05:33:01 10° S
FALCON 9 DEB 3.5 05:30:00 48° S 05:30:26 54° SE 05:33:30 10° ENE
Meteor PRIRODA 3.4 05:30:19 10° NNE 05:33:58 85° WNW 05:37:35 10° SSW
Cosmos 1626 Rocket 3.9 05:37:41 40° WNW 05:38:04 41° W 05:42:14 10° SSW
Cosmos 1703 3.7 05:39:02 39° WSW 05:39:02 39° WSW 05:42:09 10° SSW
FALCON 9 DEB 2.9 05:38:25 58° SSW 05:38:55 76° SE 05:42:01 10° ENE
Lacrosse 4 Rocket 1.9 05:40:48 37° WNW 05:41:00 37° NW 05:45:05 10° NNE
Cosmos 1300 2.7 05:40:53 10° S 05:44:41 81° E 05:48:30 10° N
Cosmos 2333 Rocket 4.3 05:46:36 10° NNW 05:46:36 10° NNW 05:46:38 10° NNW
Meteor 1-11 4.1 05:40:23 10° NNW 05:46:00 82° W 05:51:35 10° S
SAR-Lupe-4 3.4 05:43:43 10° S 05:47:18 74° WSW 05:50:19 14° NNW
Cosmos 1315 Rocket 2.8 05:45:20 10° S 05:49:13 78° E 05:53:09 10° NNE
[s.n.47389] 4.2 05:48:23 16° SSW 05:49:59 31° SE 05:52:21 10° ENE
[s.n.47399] 4.2 05:48:26 16° SSW 05:50:01 31° SE 05:52:23 10° ENE
[s.n.47393] 4.2 05:48:28 16° SSW 05:50:03 31° SE 05:52:25 10° ENE
[s.n.47353] 4.2 05:48:32 16° SSW 05:50:08 31° SE 05:52:29 10° ENE
[s.n.47355] 4.2 05:48:35 16° SSW 05:50:11 31° SE 05:52:32 10° ENE
[s.n.47365] 4.2 05:48:37 16° SSW 05:50:14 31° SE 05:52:36 10° ENE
[s.n.47383] 4.2 05:48:43 16° SSW 05:50:19 31° SE 05:52:40 10° ENE
[s.n.47400] 4.2 05:48:40 16° SSW 05:50:20 32° SE 05:52:44 10° ENE
[s.n.47378] 4.1 05:48:48 16° SSW 05:50:24 31° SE 05:52:46 10° ENE
[s.n.47395] 4.1 05:48:50 16° SSW 05:50:27 31° SE 05:52:49 10° ENE
[s.n.47370] 4.1 05:48:57 16° SSW 05:50:34 31° SE 05:52:56 10° ENE
[s.n.47379] 4.1 05:48:56 16° SSW 05:50:34 31° SE 05:52:55 10° ENE
[s.n.47351] 4.1 05:48:56 16° SSW 05:50:37 32° SE 05:53:01 10° ENE
[s.n.47394] 4.1 05:49:02 16° SSW 05:50:40 31° SE 05:53:02 10° ENE
[s.n.47354] 4.1 05:49:07 16° SSW 05:50:45 31° SE 05:53:07 10° ENE
[s.n.47360] 4.1 05:49:08 16° SSW 05:50:47 31° SE 05:53:09 10° ENE
[s.n.47369] 4.1 05:49:13 16° SSW 05:50:51 32° SE 05:53:14 10° ENE
[s.n.47406] 4.1 05:49:15 16° SSW 05:50:53 32° SE 05:53:16 10° ENE
[s.n.47384] 4.1 05:49:18 16° SSW 05:50:57 32° SE 05:53:19 10° ENE
[s.n.47356] 4.1 05:49:21 16° SSW 05:51:00 32° SE 05:53:22 10° ENE
[s.n.47407] 4.1 05:49:24 16° SSW 05:51:03 32° SE 05:53:26 10° ENE
[s.n.47385] 4.1 05:49:22 15° SSW 05:51:05 32° SE 05:53:30 10° ENE
[s.n.47358] 4.1 05:49:32 16° SSW 05:51:10 32° SE 05:53:33 10° ENE
[s.n.47398] 4.1 05:49:33 16° SSW 05:51:12 32° SE 05:53:34 10° ENE
[s.n.47361] 4.1 05:49:37 16° SSW 05:51:16 32° SE 05:53:38 10° ENE
[s.n.47392] 4.1 05:49:39 16° SSW 05:51:18 32° SE 05:53:40 10° ENE
[s.n.47382] 4.1 05:49:43 16° SSW 05:51:22 32° SE 05:53:44 10° ENE
[s.n.47359] 4.1 05:49:43 16° SSW 05:51:25 32° SE 05:53:49 10° ENE
[s.n.47401] 4.1 05:49:50 16° SSW 05:51:30 32° SE 05:53:52 10° ENE
[s.n.47380] 4.1 05:49:47 15° SSW 05:51:31 33° SE 05:53:56 10° ENE
[s.n.47386] 4.1 05:49:57 16° SSW 05:51:37 32° SE 05:53:59 10° ENE
[s.n.47408] 4.1 05:49:55 15° SSW 05:51:39 33° SE 05:54:04 10° ENE
deb Chang Zheng 4 3.7 05:47:39 10° N 05:51:43 46° WNW 05:55:44 10° SW
[s.n.47396] 4.1 05:50:02 16° SSW 05:51:43 32° SE 05:54:05 10° ENE
[s.n.47391] 4.1 05:50:04 16° SSW 05:51:45 32° SE 05:54:08 10° ENE
[s.n.47402] 4.1 05:50:08 16° SSW 05:51:48 32° SE 05:54:11 10° ENE
[s.n.47404] 4.1 05:50:11 16° SSW 05:51:51 32° SE 05:54:14 10° ENE
[s.n.47403] 4.1 05:50:14 16° SSW 05:51:55 32° SE 05:54:18 10° ENE
[s.n.47381] 4.1 05:50:17 16° SSW 05:51:58 33° SE 05:54:21 10° ENE
[s.n.47372] 4.1 05:50:21 16° SSW 05:52:01 33° SE 05:54:25 10° ENE
[s.n.47405] 4.1 05:50:23 16° SSW 05:52:04 33° SE 05:54:27 10° ENE
[s.n.47368] 4.1 05:50:28 16° SSW 05:52:09 33° SE 05:54:32 10° ENE
[s.n.47350] 4.1 05:50:30 16° SSW 05:52:11 33° SE 05:54:35 10° ENE
[s.n.47349] 4.1 05:50:27 15° SSW 05:52:13 33° SE 05:54:39 10° ENE
[s.n.47367] 4.1 05:50:34 15° SSW 05:52:17 33° SE 05:54:41 10° ENE
[s.n.47373] 4.1 05:50:34 15° SSW 05:52:20 33° SE 05:54:46 10° ENE
[s.n.47377] 4.1 05:50:37 15° SSW 05:52:23 33° SE 05:54:49 10° ENE
[s.n.47371] 4.1 05:50:40 15° SSW 05:52:25 33° SE 05:54:52 10° ENE
[s.n.47362] 4.0 05:50:42 15° SSW 05:52:28 33° SE 05:54:55 10° ENE
Cosmos 2195 Rocket 4.4 05:46:20 10° NNW 05:52:31 65° W 05:58:36 10° S
[s.n.47363] 4.0 05:50:46 15° SSW 05:52:32 34° SE 05:54:59 10° ENE
[s.n.47374] 4.0 05:50:52 15° SSW 05:52:36 33° SE 05:55:01 10° ENE
[s.n.47357] 4.0 05:50:57 15° SSW 05:52:40 33° SE 05:55:04 10° ENE
[s.n.47390] 4.0 05:51:01 15° SSW 05:52:43 33° SE 05:55:07 10° ENE
[s.n.47387] 4.0 05:51:03 15° SSW 05:52:46 33° SE 05:55:10 10° ENE
[s.n.47375] 4.0 05:51:04 15° SSW 05:52:46 33° SE 05:55:11 10° ENE
[s.n.47376] 4.0 05:51:02 15° SSW 05:52:48 34° SE 05:55:16 10° ENE
[s.n.47366] 4.0 05:51:13 15° SSW 05:52:56 33° SE 05:55:21 10° ENE
[s.n.47352] 4.0 05:51:15 15° SSW 05:52:59 34° SE 05:55:25 10° ENE
[s.n.47364] 4.0 05:51:18 15° SSW 05:53:03 34° SE 05:55:28 10° ENE
[s.n.47388] 4.0 05:51:21 15° SSW 05:53:07 34° SE 05:55:31 10° ENE
[s.n.47397] 4.0 05:51:28 15° SSW 05:53:11 34° SE 05:55:36 10° ENE
Cosmos 2297 3.7 05:50:12 12° NNW 05:55:29 62° WSW 06:01:08 10° S
MOS 1 Rocket 3.5 05:51:55 10° S 05:56:36 46° W 06:01:02 10° NNW
Cosmos 1346 Rocket 2.7 05:55:04 10° NNW 05:59:00 62° W 06:02:55 10° S
SKYMED 2 4.4 05:55:21 10° SSW 05:59:09 30° W 06:01:10 21° NW
USA 238 DEB 3.6 05:52:41 10° SW 05:59:12 64° NW 06:06:04 10° NNE
USA 238 3.6 05:52:48 10° SW 05:59:18 65° NW 06:06:10 10° NNE
Cosmos 836 Rocket 4.4 05:54:10 10° SSW 05:59:25 79° WNW 06:04:41 10° NNE
Cosmos 1428 Rocket 4.4 05:55:37 10° NNW 06:01:50 66° W 06:07:57 10° S
SAR-Lupe-1 4.3 06:00:15 10° S 06:03:41 45° W 06:07:00 11° NNW
Cosmos 1758 Rocket 3.7 05:59:32 10° NNW 06:03:55 54° W 06:08:15 10° S
Cosmos 1689 Rocket 2.5 06:03:17 10° S 06:06:01 38° W 06:07:23 23° NW
ATLAS CENTAUR R/B 2.5 06:07:56 20° NW 06:08:14 20° NW 06:11:01 10° N
BREEZE M DEB (TANK) 1.5 06:11:50 20° WSW 06:13:17 83° NNW 06:17:31 10° ENE
Atlas Centaur 2 4.5 06:10:01 10° WSW 06:15:36 23° SSW 06:21:41 10° SSE
SL-19 R/B 4.3 06:12:02 10° NNE 06:15:40 68° ESE 06:18:50 10° S
Cosmos 1726 Rocket 3.4 06:12:42 10° SSW 06:17:00 75° W 06:21:20 10° N
MOS 1-B 4.5 06:12:57 10° NNE 06:18:46 82° ESE 06:24:32 10° SSW
Cosmos 2058 Rocket 3.4 06:14:39 10° S 06:19:01 70° E 06:23:27 10° NNE
Cosmos 1892 3.2 06:15:38 10° N 06:19:28 65° E 06:23:18 10° SSE
YAOGAN 6 2.9 06:16:00 10° N 06:19:32 43° WNW 06:23:02 10° SW
Cosmos 1603 4.2 06:14:25 10° S 06:19:56 63° ESE 06:25:31 10° NNE
Spot 2 3.9 06:16:17 10° NNE 06:20:21 88° WNW 06:24:30 10° SSW
FALCON 9 DEB 3.3 06:19:09 17° W 06:21:13 43° NNW 06:24:12 10° NE
GEOS 3 Rocket 3.7 06:16:23 10° SSE 06:21:44 75° SW 06:27:10 10° NW
USA 307 3.9 06:20:53 16° WNW 06:23:39 30° NNW 06:27:25 10° NE
USA 215 4.5 06:19:47 10° NE 06:25:06 27° N 06:30:23 10° NW
Cosmos 2279 Rocket 4.0 06:22:48 10° SSW 06:29:00 64° W 06:35:15 10° N
CZ-4B DEB 4.2 06:24:14 10° N 06:29:47 70° WNW 06:35:17 10° SSW
In-Cosmos 22 Rocket 4.1 06:24:28 10° NNW 06:29:56 82° W 06:35:16 10° S
USA 305 4.0 06:26:57 13° WNW 06:29:59 28° NNW 06:33:41 10° NE
FALCON 9 DEB 3.4 06:27:20 12° W 06:30:00 41° NNW 06:33:00 10° NE
PSLV R/B 4.2 06:26:33 10° N 06:30:23 44° WNW 06:34:15 10° SW
Cosmos 2292 Rocket 2.8 06:28:32 10° NNW 06:31:35 67° W 06:35:10 10° S
USA 308 4.0 06:29:28 13° WNW 06:32:42 28° NNW 06:36:27 10° NE
Cosmos 1408 3.0 06:29:36 10° N 06:33:12 66° E 06:36:48 10° SSE
SL-4 R/B 3.1 06:31:05 12° WNW 06:34:03 28° N 06:37:41 10° NE
Cosmos 2098 Rocket 4.0 06:30:40 10° NNW 06:35:35 34° W 06:39:34 10° SSW
Okean O Rocket 1.8 06:31:21 10° NNE 06:35:44 77° ESE 06:40:03 10° S
Cosmos 1825 Rocket 4.3 06:32:24 10° NNW 06:36:26 34° W 06:40:26 10° SSW
SMAP 3.0 06:33:09 10° N 06:37:49 74° WNW 06:42:27 10° SSW
Cosmos 2263 4.3 06:33:26 10° NNW 06:39:08 83° ENE 06:44:51 10° SSE
Cosmos 1943 Rocket 2.6 06:34:33 10° NW 06:39:51 42° WSW 06:45:08 10° S
CZ-2C R/B 2.7 06:35:58 10° S 06:41:10 64° W 06:46:31 10° NNW
H-2A R/B 2.7 06:37:32 10° N 06:42:01 65° WNW 06:46:27 10° SSW
USA 306 4.1 06:38:46 10° WNW 06:42:21 26° NNW 06:45:56 10° NE
Cosmos 1939 Rocket 3.3 06:40:47 10° NNE 06:44:39 64° E 06:48:28 10° S
Envisat 3.6 06:41:50 10° N 06:46:21 33° WNW 06:50:52 10° SW
Cosmos 773 Rocket 4.0 06:42:43 10° SSW 06:47:58 87° WNW 06:53:13 10° NNE
Cosmos 2369 Rocket 2.3 06:45:09 10° NNW 06:50:40 59° WSW 06:56:07 10° S
